Time,TemperatureF,DewpointF,PressureIn,WindDirection,WindDirectionDegrees,WindSpeedMPH,WindSpeedGustMPH,Humidity,HourlyPrecipIn,Conditions,Clouds,dailyrainin,SoftwareType,DateUTC
2013-08-05 00:01:00,67.8,57.4,30.31,ESE,113,0.0,0.0,69,0.00,,,0.00,WUHU216TE923,2013-08-05 04:01:00,
2013-08-05 00:06:00,67.6,57.2,30.31,ESE,113,0.0,0.0,69,0.00,,,0.00,WUHU216TE923,2013-08-05 04:06:00,
2013-08-05 00:11:00,67.6,57.2,30.27,ESE,113,0.0,0.0,69,0.00,,,0.00,WUHU216TE923,2013-08-05 04:11:00,
2013-08-05 00:16:00,67.6,57.2,30.27,ESE,113,0.0,0.0,69,0.00,,,0.00,WUHU216TE923,2013-08-05 04:16:00,
2013-08-05 00:21:00,67.3,56.9,30.27,ESE,113,0.0,0.0,69,0.00,,,0.00,WUHU216TE923,2013-08-05 04:21:00,
2013-08-05 00:26:00,67.3,56.9,30.27,ESE,113,0.0,0.0,69,0.00,,,0.00,WUHU216TE923,2013-08-05 04:26:00,
2013-08-05 00:31:00,67.1,56.8,30.32,ESE,113,0.0,0.0,69,0.00,,,0.00,WUHU216TE923,2013-08-05 04:31:00,
2013-08-05 00:36:00,67.1,56.8,30.32,ESE,113,0.0,0.0,69,0.00,,,0.00,WUHU216TE923,2013-08-05 04:36:00,
2013-08-05 00:42:00,66.7,56.4,30.32,ESE,113,0.0,0.0,69,0.00,,,0.00,WUHU216TE923,2013-08-05 04:42:00,
2013-08-05 00:46:00,66.7,56.4,30.32,ESE,113,0.0,0.0,69,0.00,,,0.00,WUHU216TE923,2013-08-05 04:46:00,
2013-08-05 00:52:00,66.6,56.7,30.28,ESE,113,0.0,0.0,70,0.00,,,0.00,WUHU216TE923,2013-08-05 04:52:00,
2013-08-05 00:57:00,66.6,56.7,30.28,ESE,113,0.0,0.0,70,0.00,,,0.00,WUHU216TE923,2013-08-05 04:57:00,
2013-08-05 01:02:00,66.4,56.5,30.28,ESE,113,0.0,0.0,70,0.00,,,0.00,WUHU216TE923,2013-08-05 05:02:00,
2013-08-05 01:06:00,66.4,56.5,30.28,ESE,113,0.0,0.0,70,0.00,,,0.00,WUHU216TE923,2013-08-05 05:06:00,
2013-08-05 01:12:00,66.2,56.3,30.33,ESE,113,0.0,0.0,70,0.00,,,0.00,WUHU216TE923,2013-08-05 05:12:00,
2013-08-05 01:16:00,66.2,56.3,30.33,ESE,113,0.0,0.0,70,0.00,,,0.00,WUHU216TE923,2013-08-05 05:16:00,
2013-08-05 01:22:00,65.8,56.3,30.33,ESE,113,0.0,0.0,71,0.00,,,0.00,WUHU216TE923,2013-08-05 05:22:00,
2013-08-05 01:27:00,65.8,56.3,30.33,ESE,113,0.0,0.0,71,0.00,,,0.00,WUHU216TE923,2013-08-05 05:27:00,
2013-08-05 01:32:00,65.8,56.3,30.33,ESE,113,0.0,0.0,71,0.00,,,0.00,WUHU216TE923,2013-08-05 05:32:00,
2013-08-05 01:37:00,65.7,56.2,30.33,ESE,113,0.0,0.0,71,0.00,,,0.00,WUHU216TE923,2013-08-05 05:37:00,
2013-08-05 01:42:00,65.5,56.0,30.33,ESE,113,0.0,0.0,71,0.00,,,0.00,WUHU216TE923,2013-08-05 05:42:00,
2013-08-05 01:47:00,65.3,55.8,30.32,ESE,113,0.0,0.0,71,0.00,,,0.00,WUHU216TE923,2013-08-05 05:47:00,
2013-08-05 01:52:00,65.3,55.8,30.32,ESE,113,0.0,0.0,71,0.00,,,0.00,WUHU216TE923,2013-08-05 05:52:00,
2013-08-05 01:57:00,65.1,55.6,30.32,ESE,113,0.0,0.0,71,0.00,,,0.00,WUHU216TE923,2013-08-05 05:57:00,
2013-08-05 02:02:00,65.1,55.6,30.32,ESE,113,0.0,0.0,71,0.00,,,0.00,WUHU216TE923,2013-08-05 06:02:00,
2013-08-05 02:07:00,64.9,55.8,30.32,ESE,113,0.0,0.0,72,0.00,,,0.00,WUHU216TE923,2013-08-05 06:07:00,
2013-08-05 02:12:00,64.9,55.8,30.32,ESE,113,0.0,0.0,72,0.00,,,0.00,WUHU216TE923,2013-08-05 06:12:00,
2013-08-05 02:17:00,64.8,55.7,30.32,ESE,113,0.0,0.0,72,0.00,,,0.00,WUHU216TE923,2013-08-05 06:17:00,
2013-08-05 02:22:00,64.6,55.5,30.32,ESE,113,0.0,0.0,72,0.00,,,0.00,WUHU216TE923,2013-08-05 06:22:00,
2013-08-05 02:27:00,64.6,55.5,30.31,ESE,113,0.0,0.0,72,0.00,,,0.00,WUHU216TE923,2013-08-05 06:27:00,
2013-08-05 02:32:00,64.6,55.9,30.31,ESE,113,0.0,0.0,73,0.00,,,0.00,WUHU216TE923,2013-08-05 06:32:00,
2013-08-05 02:37:00,64.4,55.7,30.31,ESE,113,0.0,0.0,73,0.00,,,0.00,WUHU216TE923,2013-08-05 06:37:00,
2013-08-05 02:42:00,64.4,55.7,30.31,ESE,113,0.0,0.0,73,0.00,,,0.00,WUHU216TE923,2013-08-05 06:42:00,
2013-08-05 02:47:00,64.4,55.7,30.32,ESE,113,0.0,0.0,73,0.00,,,0.00,WUHU216TE923,2013-08-05 06:47:00,
2013-08-05 02:52:00,64.2,55.5,30.32,ESE,113,0.0,0.0,73,0.00,,,0.00,WUHU216TE923,2013-08-05 06:52:00,
2013-08-05 02:57:00,64.4,55.7,30.32,ESE,113,0.0,0.0,73,0.00,,,0.00,WUHU216TE923,2013-08-05 06:57:00,
2013-08-05 03:02:00,64.4,55.7,30.32,ESE,113,0.0,0.0,73,0.00,,,0.00,WUHU216TE923,2013-08-05 07:02:00,
2013-08-05 03:07:00,64.4,56.1,30.32,ESE,113,0.0,0.0,74,0.00,,,0.00,WUHU216TE923,2013-08-05 07:07:00,
2013-08-05 03:12:00,64.4,56.1,30.32,ESE,113,0.0,0.0,74,0.00,,,0.00,WUHU216TE923,2013-08-05 07:12:00,
2013-08-05 03:17:00,64.4,56.1,30.32,ESE,113,0.0,0.0,74,0.00,,,0.00,WUHU216TE923,2013-08-05 07:17:00,
2013-08-05 03:22:00,64.4,56.1,30.32,ESE,113,0.0,0.0,74,0.00,,,0.00,WUHU216TE923,2013-08-05 07:22:00,
2013-08-05 03:27:00,64.4,56.1,30.32,ESE,113,0.0,0.0,74,0.00,,,0.00,WUHU216TE923,2013-08-05 07:27:00,
2013-08-05 03:32:00,64.4,56.4,30.31,ESE,113,0.0,0.0,75,0.00,,,0.00,WUHU216TE923,2013-08-05 07:32:00,
2013-08-05 03:37:00,64.4,56.4,30.31,ESE,113,0.0,0.0,75,0.00,,,0.00,WUHU216TE923,2013-08-05 07:37:00,
2013-08-05 03:42:00,64.2,56.2,30.31,ESE,113,0.0,0.0,75,0.00,,,0.00,WUHU216TE923,2013-08-05 07:42:00,
2013-08-05 03:47:00,64.2,56.2,30.31,ESE,113,0.0,0.0,75,0.00,,,0.00,WUHU216TE923,2013-08-05 07:47:00,
2013-08-05 03:52:00,63.9,55.9,30.33,ESE,113,0.0,0.0,75,0.00,,,0.00,WUHU216TE923,2013-08-05 07:52:00,
2013-08-05 03:57:00,63.9,55.9,30.33,ESE,113,0.0,0.0,75,0.00,,,0.00,WUHU216TE923,2013-08-05 07:57:00,
2013-08-05 04:02:00,63.9,55.9,30.33,ESE,113,0.0,0.0,75,0.00,,,0.00,WUHU216TE923,2013-08-05 08:02:00,
2013-08-05 04:07:00,63.9,55.9,30.33,ESE,113,0.0,0.0,75,0.00,,,0.00,WUHU216TE923,2013-08-05 08:07:00,
2013-08-05 04:12:00,63.7,55.7,30.29,ESE,113,0.0,0.0,75,0.00,,,0.00,WUHU216TE923,2013-08-05 08:12:00,
2013-08-05 04:17:00,63.7,55.7,30.29,ESE,113,0.0,0.0,75,0.00,,,0.00,WUHU216TE923,2013-08-05 08:17:00,
2013-08-05 04:22:00,63.7,55.7,30.29,ESE,113,0.0,0.0,75,0.00,,,0.00,WUHU216TE923,2013-08-05 08:22:00,
2013-08-05 04:27:00,63.7,55.7,30.32,ESE,113,0.0,0.0,75,0.00,,,0.00,WUHU216TE923,2013-08-05 08:27:00,
2013-08-05 04:32:00,63.7,56.1,30.32,ESE,113,0.0,0.0,76,0.00,,,0.00,WUHU216TE923,2013-08-05 08:32:00,
2013-08-05 04:37:00,63.7,56.1,30.32,ESE,113,0.0,0.0,76,0.00,,,0.00,WUHU216TE923,2013-08-05 08:37:00,
2013-08-05 04:42:00,63.7,56.1,30.32,ESE,113,0.0,0.0,76,0.00,,,0.00,WUHU216TE923,2013-08-05 08:42:00,
2013-08-05 04:47:00,63.7,56.1,30.32,ESE,113,0.0,0.0,76,0.00,,,0.00,WUHU216TE923,2013-08-05 08:47:00,
2013-08-05 04:52:00,63.7,56.1,30.32,ESE,113,0.0,0.0,76,0.00,,,0.00,WUHU216TE923,2013-08-05 08:52:00,
2013-08-05 04:57:00,63.5,55.9,30.32,ESE,113,0.0,0.0,76,0.00,,,0.00,WUHU216TE923,2013-08-05 08:57:00,
2013-08-05 05:02:00,63.5,55.9,30.32,ESE,113,0.0,0.0,76,0.00,,,0.00,WUHU216TE923,2013-08-05 09:02:00,
2013-08-05 05:07:00,63.5,55.9,30.33,ESE,113,0.0,0.0,76,0.00,,,0.00,WUHU216TE923,2013-08-05 09:07:00,
2013-08-05 05:12:00,63.5,55.9,30.33,ESE,113,0.0,0.0,76,0.00,,,0.00,WUHU216TE923,2013-08-05 09:12:00,
2013-08-05 05:17:00,63.5,55.9,30.33,East,90,0.0,0.0,76,0.00,,,0.00,WUHU216TE923,2013-08-05 09:17:00,
2013-08-05 05:22:00,63.3,55.7,30.33,East,90,0.0,0.0,76,0.00,,,0.00,WUHU216TE923,2013-08-05 09:22:00,
2013-08-05 05:28:00,63.3,55.7,30.36,ENE,68,0.0,0.0,76,0.00,,,0.00,WUHU216TE923,2013-08-05 09:28:00,
2013-08-05 05:33:00,63.3,55.7,30.36,ENE,68,0.0,0.0,76,0.00,,,0.00,WUHU216TE923,2013-08-05 09:33:00,
2013-08-05 05:38:00,63.3,55.7,30.36,ENE,68,0.0,0.0,76,0.00,,,0.00,WUHU216TE923,2013-08-05 09:38:00,
2013-08-05 05:43:00,63.1,55.5,30.36,ENE,68,0.0,0.0,76,0.00,,,0.00,WUHU216TE923,2013-08-05 09:43:00,
2013-08-05 05:48:00,63.0,55.4,30.33,ENE,68,0.0,0.0,76,0.00,,,0.00,WUHU216TE923,2013-08-05 09:48:00,
2013-08-05 05:53:00,63.0,55.4,30.33,ENE,68,0.0,0.0,76,0.00,,,0.00,WUHU216TE923,2013-08-05 09:53:00,
2013-08-05 05:58:00,62.8,55.2,30.33,ENE,68,0.0,0.0,76,0.00,,,0.00,WUHU216TE923,2013-08-05 09:58:00,
2013-08-05 06:04:00,62.8,55.2,30.33,ENE,68,0.0,0.0,76,0.00,,,0.00,WUHU216TE923,2013-08-05 10:04:00,
2013-08-05 06:08:00,62.8,55.2,30.36,ENE,68,0.0,0.0,76,0.00,,,0.00,WUHU216TE923,2013-08-05 10:08:00,
2013-08-05 06:14:00,62.8,55.2,30.36,ENE,68,0.0,0.0,76,0.00,,,0.00,WUHU216TE923,2013-08-05 10:14:00,
2013-08-05 06:18:00,62.4,54.8,30.36,East,90,0.0,0.0,76,0.00,,,0.00,WUHU216TE923,2013-08-05 10:18:00,
2013-08-05 06:24:00,62.4,54.8,30.36,East,90,0.0,0.0,76,0.00,,,0.00,WUHU216TE923,2013-08-05 10:24:00,
2013-08-05 06:30:00,62.4,54.8,30.36,East,90,0.0,0.0,76,0.00,,,0.00,WUHU216TE923,2013-08-05 10:30:00,
2013-08-05 06:35:00,62.4,54.8,30.36,East,90,0.0,0.0,76,0.00,,,0.00,WUHU216TE923,2013-08-05 10:35:00,
2013-08-05 06:40:00,62.4,54.8,30.36,East,90,0.0,0.0,76,0.00,,,0.00,WUHU216TE923,2013-08-05 10:40:00,
2013-08-05 06:46:00,62.4,54.8,30.36,ENE,68,0.0,0.0,76,0.00,,,0.00,WUHU216TE923,2013-08-05 10:46:00,
2013-08-05 06:51:00,62.4,55.2,30.33,ENE,68,0.0,0.0,77,0.00,,,0.00,WUHU216TE923,2013-08-05 10:51:00,
2013-08-05 06:56:00,62.4,55.2,30.33,ENE,68,0.0,0.0,77,0.00,,,0.00,WUHU216TE923,2013-08-05 10:56:00,
2013-08-05 07:01:00,62.4,55.2,30.33,ENE,68,0.0,0.0,77,0.00,,,0.00,WUHU216TE923,2013-08-05 11:01:00,
2013-08-05 07:06:00,62.4,55.2,30.33,ENE,68,0.0,0.0,77,0.00,,,0.00,WUHU216TE923,2013-08-05 11:06:00,
2013-08-05 07:12:00,62.2,55.0,30.36,ESE,113,0.0,0.0,77,0.00,,,0.00,WUHU216TE923,2013-08-05 11:12:00,
2013-08-05 07:17:00,62.4,55.2,30.36,ENE,68,0.0,0.0,77,0.00,,,0.00,WUHU216TE923,2013-08-05 11:17:00,
2013-08-05 07:23:00,62.4,55.5,30.36,ESE,113,0.0,0.0,78,0.00,,,0.00,WUHU216TE923,2013-08-05 11:23:00,
2013-08-05 07:28:00,62.4,55.5,30.31,ESE,113,0.0,0.0,78,0.00,,,0.00,WUHU216TE923,2013-08-05 11:28:00,
2013-08-05 07:33:00,62.4,55.5,30.31,ESE,113,0.0,0.0,78,0.00,,,0.00,WUHU216TE923,2013-08-05 11:33:00,
2013-08-05 07:37:00,62.4,55.5,30.31,ESE,113,0.0,0.0,78,0.00,,,0.00,WUHU216TE923,2013-08-05 11:37:00,
2013-08-05 07:43:00,62.6,55.7,30.31,ENE,68,0.0,0.0,78,0.00,,,0.00,WUHU216TE923,2013-08-05 11:43:00,
2013-08-05 07:48:00,62.8,56.3,30.31,ESE,113,0.0,0.0,79,0.00,,,0.00,WUHU216TE923,2013-08-05 11:48:00,
2013-08-05 07:52:00,62.8,56.3,30.31,East,90,0.0,0.0,79,0.00,,,0.00,WUHU216TE923,2013-08-05 11:52:00,
2013-08-05 07:57:00,63.0,56.5,30.31,ESE,113,0.0,0.0,79,0.00,,,0.00,WUHU216TE923,2013-08-05 11:57:00,
2013-08-05 08:03:00,63.1,56.6,30.31,SE,135,0.0,0.0,79,0.00,,,0.00,WUHU216TE923,2013-08-05 12:03:00,
2013-08-05 08:08:00,63.3,56.8,30.31,SE,135,0.0,0.0,79,0.00,,,0.00,WUHU216TE923,2013-08-05 12:08:00,
2013-08-05 08:13:00,63.5,57.3,30.31,ESE,113,0.0,0.0,80,0.00,,,0.00,WUHU216TE923,2013-08-05 12:13:00,
2013-08-05 08:18:00,63.7,57.1,30.31,ESE,113,0.0,0.0,79,0.00,,,0.00,WUHU216TE923,2013-08-05 12:18:00,
2013-08-05 08:23:00,63.7,57.1,30.31,ESE,113,0.0,0.0,79,0.00,,,0.00,WUHU216TE923,2013-08-05 12:23:00,
2013-08-05 08:28:00,63.9,57.3,30.31,SE,135,0.0,0.0,79,0.00,,,0.00,WUHU216TE923,2013-08-05 12:28:00,
2013-08-05 08:33:00,64.2,57.6,30.31,ENE,68,0.0,0.0,79,0.00,,,0.00,WUHU216TE923,2013-08-05 12:33:00,
2013-08-05 08:38:00,64.4,57.8,30.31,ESE,113,0.0,0.0,79,0.00,,,0.00,WUHU216TE923,2013-08-05 12:38:00,
2013-08-05 08:43:00,64.6,58.0,30.31,SE,135,0.0,0.0,79,0.00,,,0.00,WUHU216TE923,2013-08-05 12:43:00,
2013-08-05 08:49:00,64.9,58.3,30.33,SE,135,0.0,0.0,79,0.00,,,0.00,WUHU216TE923,2013-08-05 12:49:00,
2013-08-05 08:54:00,65.3,58.4,30.33,SE,135,0.0,0.0,78,0.00,,,0.00,WUHU216TE923,2013-08-05 12:54:00,
2013-08-05 08:59:00,65.7,58.7,30.33,ENE,68,0.2,1.4,78,0.00,,,0.00,WUHU216TE923,2013-08-05 12:59:00,
2013-08-05 09:04:00,65.8,58.8,30.33,ESE,113,0.3,1.4,78,0.00,,,0.00,WUHU216TE923,2013-08-05 13:04:00,
2013-08-05 09:09:00,66.2,59.2,30.38,ENE,68,0.4,1.3,78,0.00,,,0.00,WUHU216TE923,2013-08-05 13:09:00,
2013-08-05 09:15:00,66.6,59.3,30.38,NNE,23,0.4,1.3,77,0.00,,,0.00,WUHU216TE923,2013-08-05 13:15:00,
2013-08-05 09:20:00,66.9,58.8,30.38,West,270,0.3,0.4,75,0.00,,,0.00,WUHU216TE923,2013-08-05 13:20:00,
2013-08-05 09:25:00,67.5,59.1,30.38,WSW,248,0.0,0.3,74,0.00,,,0.00,WUHU216TE923,2013-08-05 13:25:00,
2013-08-05 09:30:00,68.5,59.3,30.38,ENE,68,0.0,0.0,72,0.00,,,0.00,WUHU216TE923,2013-08-05 13:30:00,
2013-08-05 09:35:00,68.7,58.3,30.38,SW,225,0.1,0.1,69,0.00,,,0.00,WUHU216TE923,2013-08-05 13:35:00,
2013-08-05 09:41:00,68.9,58.5,30.38,ESE,113,0.1,1.2,69,0.00,,,0.00,WUHU216TE923,2013-08-05 13:41:00,
2013-08-05 09:47:00,69.6,58.8,30.38,ESE,113,0.1,1.2,68,0.00,,,0.00,WUHU216TE923,2013-08-05 13:47:00,
2013-08-05 09:52:00,70.5,57.9,30.34,SSE,158,0.3,1.3,64,0.00,,,0.00,WUHU216TE923,2013-08-05 13:52:00,
2013-08-05 09:57:00,70.5,57.9,30.34,SSE,158,0.3,1.3,64,0.00,,,0.00,WUHU216TE923,2013-08-05 13:57:00,
2013-08-05 10:02:00,70.9,57.0,30.34,NW,315,0.1,0.4,61,0.00,,,0.00,WUHU216TE923,2013-08-05 14:02:00,
2013-08-05 10:08:00,71.8,57.8,30.34,ESE,113,0.1,0.1,61,0.00,,,0.00,WUHU216TE923,2013-08-05 14:08:00,
2013-08-05 10:13:00,71.6,58.1,30.34,ENE,68,0.0,0.1,62,0.00,,,0.00,WUHU216TE923,2013-08-05 14:13:00,
2013-08-05 10:18:00,71.2,58.2,30.34,ENE,68,0.0,0.0,63,0.00,,,0.00,WUHU216TE923,2013-08-05 14:18:00,
2013-08-05 10:23:00,72.0,58.5,30.34,WNW,293,0.1,1.3,62,0.00,,,0.00,WUHU216TE923,2013-08-05 14:23:00,
2013-08-05 10:28:00,72.9,59.3,30.34,ESE,113,0.2,1.3,62,0.00,,,0.00,WUHU216TE923,2013-08-05 14:28:00,
2013-08-05 10:34:00,73.2,59.1,30.34,NE,45,0.3,1.4,61,0.00,,,0.00,WUHU216TE923,2013-08-05 14:34:00,
2013-08-05 10:39:00,74.1,59.0,30.34,ENE,68,0.4,1.4,59,0.00,,,0.00,WUHU216TE923,2013-08-05 14:39:00,
2013-08-05 10:43:00,74.3,58.8,30.34,ESE,113,0.4,0.4,58,0.00,,,0.00,WUHU216TE923,2013-08-05 14:43:00,
2013-08-05 10:49:00,74.5,58.4,30.30,ESE,113,0.0,0.4,57,0.00,,,0.00,WUHU216TE923,2013-08-05 14:49:00,
2013-08-05 10:54:00,75.2,58.6,30.30,ENE,68,0.0,0.0,56,0.00,,,0.00,WUHU216TE923,2013-08-05 14:54:00,
2013-08-05 10:59:00,75.7,59.1,30.30,SE,135,0.0,0.0,56,0.00,,,0.00,WUHU216TE923,2013-08-05 14:59:00,
2013-08-05 11:04:00,75.6,57.4,30.30,West,270,0.2,1.3,53,0.00,,,0.00,WUHU216TE923,2013-08-05 15:04:00,
2013-08-05 11:09:00,76.5,58.8,30.27,ENE,68,0.2,1.3,54,0.00,,,0.00,WUHU216TE923,2013-08-05 15:09:00,
2013-08-05 11:14:00,76.8,59.1,30.27,NNW,338,0.2,1.2,54,0.00,,,0.00,WUHU216TE923,2013-08-05 15:14:00,
2013-08-05 11:20:00,77.2,58.3,30.27,East,90,0.3,1.4,52,0.00,,,0.00,WUHU216TE923,2013-08-05 15:20:00,
2013-08-05 11:25:00,77.5,59.2,30.27,ENE,68,0.4,1.4,53,0.00,,,0.00,WUHU216TE923,2013-08-05 15:25:00,
2013-08-05 11:30:00,77.7,57.7,30.28,NNW,338,0.3,0.4,50,0.00,,,0.00,WUHU216TE923,2013-08-05 15:30:00,
2013-08-05 11:35:00,78.3,59.4,30.28,ENE,68,0.4,1.4,52,0.00,,,0.00,WUHU216TE923,2013-08-05 15:35:00,
2013-08-05 11:40:00,78.8,58.7,30.28,NE,45,0.7,1.9,50,0.00,,,0.00,WUHU216TE923,2013-08-05 15:40:00,
2013-08-05 11:46:00,79.0,58.9,30.28,NE,45,0.6,1.9,50,0.00,,,0.00,WUHU216TE923,2013-08-05 15:46:00,
2013-08-05 11:50:00,79.2,57.9,30.31,SE,135,0.5,1.1,48,0.00,,,0.00,WUHU216TE923,2013-08-05 15:50:00,
2013-08-05 11:56:00,79.3,58.6,30.31,ENE,68,0.4,1.5,49,0.00,,,0.00,WUHU216TE923,2013-08-05 15:56:00,
2013-08-05 12:01:00,80.4,58.4,30.31,NE,45,0.3,1.0,47,0.00,,,0.00,WUHU216TE923,2013-08-05 16:01:00,
2013-08-05 12:07:00,80.4,58.4,30.31,NE,45,0.3,1.0,47,0.00,,,0.00,WUHU216TE923,2013-08-05 16:07:00,
2013-08-05 12:12:00,81.0,57.7,30.33,ESE,113,0.4,2.6,45,0.00,,,0.00,WUHU216TE923,2013-08-05 16:12:00,
2013-08-05 12:17:00,81.0,57.7,30.33,ESE,113,0.4,2.6,45,0.00,,,0.00,WUHU216TE923,2013-08-05 16:17:00,
2013-08-05 12:22:00,81.7,57.7,30.33,NNE,23,0.3,0.3,44,0.00,,,0.00,WUHU216TE923,2013-08-05 16:22:00,
2013-08-05 12:28:00,81.9,57.9,30.34,WSW,248,0.0,0.3,44,0.00,,,0.00,WUHU216TE923,2013-08-05 16:28:00,
2013-08-05 12:33:00,81.9,56.5,30.34,East,90,0.0,1.0,42,0.00,,,0.00,WUHU216TE923,2013-08-05 16:33:00,
2013-08-05 12:38:00,82.4,55.6,30.34,East,90,0.5,1.6,40,0.00,,,0.00,WUHU216TE923,2013-08-05 16:38:00,
2013-08-05 12:43:00,82.4,55.6,30.34,ESE,113,0.7,1.6,40,0.00,,,0.00,WUHU216TE923,2013-08-05 16:43:00,
2013-08-05 12:48:00,82.6,55.8,30.34,ENE,68,0.6,1.3,40,0.00,,,0.00,WUHU216TE923,2013-08-05 16:48:00,
2013-08-05 12:53:00,82.9,54.6,30.34,SSE,158,0.3,1.0,38,0.00,,,0.00,WUHU216TE923,2013-08-05 16:53:00,
2013-08-05 12:57:00,82.9,54.6,30.34,ESE,113,0.0,0.0,38,0.00,,,0.00,WUHU216TE923,2013-08-05 16:57:00,
2013-08-05 12:58:00,82.9,54.6,30.34,ESE,113,0.0,1.0,38,0.00,,,0.00,WUHU216TE923,2013-08-05 16:58:00,
2013-08-05 13:03:00,82.9,54.6,30.34,ESE,113,0.0,0.0,38,0.00,,,0.00,WUHU216TE923,2013-08-05 17:03:00,
2013-08-05 13:08:00,81.9,54.4,30.27,SE,135,0.3,0.3,39,0.00,,,0.00,WUHU216TE923,2013-08-05 17:08:00,
2013-08-05 13:13:00,82.2,55.4,30.27,SE,135,0.2,1.4,40,0.00,,,0.00,WUHU216TE923,2013-08-05 17:13:00,
2013-08-05 13:18:00,82.0,55.2,30.27,East,90,0.1,1.4,40,0.00,,,0.00,WUHU216TE923,2013-08-05 17:18:00,
2013-08-05 13:23:00,82.8,56.0,30.27,North,0,0.1,0.1,40,0.00,,,0.00,WUHU216TE923,2013-08-05 17:23:00,
2013-08-05 13:28:00,82.6,55.1,30.27,SE,135,0.0,0.1,39,0.00,,,0.00,WUHU216TE923,2013-08-05 17:28:00,
2013-08-05 13:33:00,83.3,55.7,30.27,South,180,0.0,0.0,39,0.00,,,0.00,WUHU216TE923,2013-08-05 17:33:00,
2013-08-05 13:39:00,84.0,56.3,30.27,West,270,0.0,1.3,39,0.00,,,0.00,WUHU216TE923,2013-08-05 17:39:00,
2013-08-05 13:44:00,84.2,56.5,30.27,WSW,248,0.2,1.4,39,0.00,,,0.00,WUHU216TE923,2013-08-05 17:44:00,
2013-08-05 13:49:00,84.7,56.2,30.28,NW,315,0.3,1.4,38,0.00,,,0.00,WUHU216TE923,2013-08-05 17:49:00,
2013-08-05 13:54:00,84.9,54.1,30.28,East,90,0.3,1.5,35,0.00,,,0.00,WUHU216TE923,2013-08-05 17:54:00,
2013-08-05 13:59:00,85.5,54.6,30.28,NW,315,0.3,1.5,35,0.00,,,0.00,WUHU216TE923,2013-08-05 17:59:00,
2013-08-05 14:04:00,85.6,54.7,30.28,NW,315,0.3,0.3,35,0.00,,,0.00,WUHU216TE923,2013-08-05 18:04:00,
2013-08-05 14:09:00,85.8,54.9,30.28,WNW,293,0.1,0.3,35,0.00,,,0.00,WUHU216TE923,2013-08-05 18:09:00,
2013-08-05 14:14:00,85.1,54.3,30.28,WNW,293,0.1,0.1,35,0.00,,,0.00,WUHU216TE923,2013-08-05 18:14:00,
2013-08-05 14:20:00,84.7,53.9,30.28,NW,315,0.3,1.6,35,0.00,,,0.00,WUHU216TE923,2013-08-05 18:20:00,
2013-08-05 14:25:00,85.1,55.8,30.28,SW,225,0.3,1.6,37,0.00,,,0.00,WUHU216TE923,2013-08-05 18:25:00,
2013-08-05 14:30:00,84.9,53.3,30.28,SSE,158,0.3,1.5,34,0.00,,,0.00,WUHU216TE923,2013-08-05 18:30:00,
2013-08-05 14:35:00,84.9,55.6,30.28,NW,315,0.4,1.0,37,0.00,,,0.00,WUHU216TE923,2013-08-05 18:35:00,
2013-08-05 14:40:00,85.5,56.2,30.28,NW,315,0.3,1.0,37,0.00,,,0.00,WUHU216TE923,2013-08-05 18:40:00,
2013-08-05 14:45:00,85.5,55.4,30.28,WNW,293,0.3,1.3,36,0.00,,,0.00,WUHU216TE923,2013-08-05 18:45:00,
2013-08-05 14:50:00,85.1,55.8,30.28,WNW,293,0.7,1.3,37,0.00,,,0.00,WUHU216TE923,2013-08-05 18:50:00,
2013-08-05 14:55:00,85.1,55.8,30.28,WSW,248,0.8,1.6,37,0.00,,,0.00,WUHU216TE923,2013-08-05 18:55:00,
2013-08-05 15:00:00,84.2,55.8,30.17,SW,225,0.7,1.6,38,0.00,,,0.00,WUHU216TE923,2013-08-05 19:00:00,
2013-08-05 15:05:00,84.2,55.8,30.17,WSW,248,0.7,1.4,38,0.00,,,0.00,WUHU216TE923,2013-08-05 19:05:00,
2013-08-05 15:11:00,84.4,55.9,30.14,East,90,0.4,0.7,38,0.00,,,0.00,WUHU216TE923,2013-08-05 19:11:00,
2013-08-05 15:17:00,84.6,56.8,30.14,NW,315,0.2,0.4,39,0.00,,,0.00,WUHU216TE923,2013-08-05 19:17:00,
2013-08-05 15:22:00,84.9,56.4,30.14,NW,315,0.0,0.1,38,0.00,,,0.00,WUHU216TE923,2013-08-05 19:22:00,
2013-08-05 15:27:00,84.9,56.4,30.14,NW,315,0.0,0.1,38,0.00,,,0.00,WUHU216TE923,2013-08-05 19:27:00,
2013-08-05 15:33:00,84.0,56.3,30.13,WSW,248,0.1,0.1,39,0.00,,,0.00,WUHU216TE923,2013-08-05 19:33:00,
2013-08-05 15:38:00,83.3,55.7,30.13,NW,315,0.0,0.1,39,0.00,,,0.00,WUHU216TE923,2013-08-05 19:38:00,
2013-08-05 15:43:00,83.1,56.2,30.13,NW,315,0.0,0.0,40,0.00,,,0.00,WUHU216TE923,2013-08-05 19:43:00,
2013-08-05 15:48:00,82.9,56.7,30.16,NW,315,0.0,0.0,41,0.00,,,0.00,WUHU216TE923,2013-08-05 19:48:00,
2013-08-05 15:53:00,83.3,57.1,30.16,ENE,68,0.0,0.0,41,0.00,,,0.00,WUHU216TE923,2013-08-05 19:53:00,
2013-08-05 15:58:00,83.3,56.4,30.16,West,270,0.0,0.0,40,0.00,,,0.00,WUHU216TE923,2013-08-05 19:58:00,
2013-08-05 16:03:00,82.9,56.0,30.16,West,270,0.0,0.0,40,0.00,,,0.00,WUHU216TE923,2013-08-05 20:03:00,
2013-08-05 16:08:00,82.8,56.0,30.11,NNE,23,0.0,0.0,40,0.00,,,0.00,WUHU216TE923,2013-08-05 20:08:00,
2013-08-05 16:13:00,82.8,57.3,30.11,NNE,23,0.0,0.0,42,0.00,,,0.00,WUHU216TE923,2013-08-05 20:13:00,
2013-08-05 16:18:00,82.6,57.2,30.11,NNW,338,0.0,0.0,42,0.00,,,0.00,WUHU216TE923,2013-08-05 20:18:00,
2013-08-05 16:23:00,82.4,57.0,30.11,NNW,338,0.0,0.0,42,0.00,,,0.00,WUHU216TE923,2013-08-05 20:23:00,
2013-08-05 16:28:00,82.6,57.8,30.12,WSW,248,0.0,0.0,43,0.00,,,0.00,WUHU216TE923,2013-08-05 20:28:00,
2013-08-05 16:33:00,82.8,58.0,30.12,West,270,0.1,0.1,43,0.00,,,0.00,WUHU216TE923,2013-08-05 20:33:00,
2013-08-05 16:38:00,82.6,57.8,30.12,NW,315,0.1,0.1,43,0.00,,,0.00,WUHU216TE923,2013-08-05 20:38:00,
2013-08-05 16:44:00,82.4,58.3,30.12,NW,315,0.0,0.1,44,0.00,,,0.00,WUHU216TE923,2013-08-05 20:44:00,
2013-08-05 16:49:00,82.4,58.3,30.13,WSW,248,0.0,0.0,44,0.00,,,0.00,WUHU216TE923,2013-08-05 20:49:00,
2013-08-05 16:54:00,82.8,58.0,30.13,South,180,0.1,0.1,43,0.00,,,0.00,WUHU216TE923,2013-08-05 20:54:00,
2013-08-05 17:00:00,83.1,54.0,30.13,SE,135,0.1,0.1,37,0.00,,,0.00,WUHU216TE923,2013-08-05 21:00:00,
2013-08-05 17:05:00,83.5,55.1,30.13,WSW,248,0.1,0.1,38,0.00,,,0.00,WUHU216TE923,2013-08-05 21:05:00,
2013-08-05 17:10:00,83.8,52.3,30.08,ENE,68,0.3,1.6,34,0.00,,,0.00,WUHU216TE923,2013-08-05 21:10:00,
2013-08-05 17:15:00,84.2,54.2,30.08,NE,45,0.2,1.6,36,0.00,,,0.00,WUHU216TE923,2013-08-05 21:15:00,
2013-08-05 17:20:00,83.8,48.9,30.08,SSE,158,0.1,0.2,30,0.00,,,0.00,WUHU216TE923,2013-08-05 21:20:00,
2013-08-05 17:25:00,83.7,49.7,30.08,SSW,203,0.1,1.1,31,0.00,,,0.00,WUHU216TE923,2013-08-05 21:25:00,
2013-08-05 17:30:00,83.7,50.6,30.09,NE,45,0.2,1.1,32,0.00,,,0.00,WUHU216TE923,2013-08-05 21:30:00,
2013-08-05 17:35:00,83.7,50.6,30.09,NE,45,0.1,0.2,32,0.00,,,0.00,WUHU216TE923,2013-08-05 21:35:00,
2013-08-05 17:40:00,83.7,49.7,30.09,South,180,0.1,0.1,31,0.00,,,0.00,WUHU216TE923,2013-08-05 21:40:00,
2013-08-05 17:46:00,83.3,51.1,30.09,WNW,293,0.1,0.1,33,0.00,,,0.00,WUHU216TE923,2013-08-05 21:46:00,
2013-08-05 17:51:00,82.9,50.7,30.11,NW,315,0.0,0.1,33,0.00,,,0.00,WUHU216TE923,2013-08-05 21:51:00,
2013-08-05 17:56:00,82.8,49.8,30.11,ENE,68,0.0,0.0,32,0.00,,,0.00,WUHU216TE923,2013-08-05 21:56:00,
2013-08-05 18:01:00,82.6,51.3,30.11,WNW,293,0.0,0.0,34,0.00,,,0.00,WUHU216TE923,2013-08-05 22:01:00,
2013-08-05 18:06:00,82.4,51.9,30.11,West,270,0.0,0.0,35,0.00,,,0.00,WUHU216TE923,2013-08-05 22:06:00,
2013-08-05 18:11:00,82.2,49.3,30.11,South,180,0.0,0.0,32,0.00,,,0.00,WUHU216TE923,2013-08-05 22:11:00,
2013-08-05 18:16:00,82.0,49.9,30.11,NNE,23,0.1,0.1,33,0.00,,,0.00,WUHU216TE923,2013-08-05 22:16:00,
2013-08-05 18:21:00,81.7,51.3,30.11,West,270,0.1,0.1,35,0.00,,,0.00,WUHU216TE923,2013-08-05 22:21:00,
2013-08-05 18:26:00,81.3,49.3,30.11,NNE,23,0.0,0.1,33,0.00,,,0.00,WUHU216TE923,2013-08-05 22:26:00,
2013-08-05 18:32:00,80.6,49.5,30.08,South,180,0.0,0.0,34,0.00,,,0.00,WUHU216TE923,2013-08-05 22:32:00,
2013-08-05 18:37:00,80.6,49.5,30.08,South,180,0.0,0.0,34,0.00,,,0.00,WUHU216TE923,2013-08-05 22:37:00,
2013-08-05 18:42:00,80.2,51.4,30.08,East,90,0.0,0.0,37,0.00,,,0.00,WUHU216TE923,2013-08-05 22:42:00,
2013-08-05 18:48:00,80.2,51.4,30.10,NE,45,0.1,0.1,37,0.00,,,0.00,WUHU216TE923,2013-08-05 22:48:00,
2013-08-05 18:53:00,80.1,52.1,30.10,NE,45,0.1,0.1,38,0.00,,,0.00,WUHU216TE923,2013-08-05 22:53:00,
2013-08-05 18:58:00,79.9,51.9,30.10,SW,225,0.0,0.1,38,0.00,,,0.00,WUHU216TE923,2013-08-05 22:58:00,
2013-08-05 19:03:00,79.5,52.3,30.10,SW,225,0.0,0.0,39,0.00,,,0.00,WUHU216TE923,2013-08-05 23:03:00,
2013-08-05 19:08:00,79.3,52.1,30.11,SW,225,0.0,0.0,39,0.00,,,0.00,WUHU216TE923,2013-08-05 23:08:00,
2013-08-05 19:13:00,79.0,52.5,30.11,SW,225,0.0,0.0,40,0.00,,,0.00,WUHU216TE923,2013-08-05 23:13:00,
2013-08-05 19:18:00,78.6,54.2,30.11,SW,225,0.0,0.0,43,0.00,,,0.00,WUHU216TE923,2013-08-05 23:18:00,
2013-08-05 19:23:00,78.4,54.7,30.11,SW,225,0.0,0.0,44,0.00,,,0.00,WUHU216TE923,2013-08-05 23:23:00,
2013-08-05 19:28:00,77.9,54.9,30.09,SW,225,0.0,0.0,45,0.00,,,0.00,WUHU216TE923,2013-08-05 23:28:00,
2013-08-05 19:33:00,77.5,54.5,30.09,SW,225,0.0,0.0,45,0.00,,,0.00,WUHU216TE923,2013-08-05 23:33:00,
2013-08-05 19:38:00,77.4,55.0,30.09,SW,225,0.0,0.0,46,0.00,,,0.00,WUHU216TE923,2013-08-05 23:38:00,
2013-08-05 19:43:00,77.2,54.8,30.09,SW,225,0.0,0.0,46,0.00,,,0.00,WUHU216TE923,2013-08-05 23:43:00,
2013-08-05 19:48:00,76.8,55.1,30.08,SW,225,0.0,0.0,47,0.00,,,0.00,WUHU216TE923,2013-08-05 23:48:00,
2013-08-05 19:54:00,76.5,54.8,30.08,SW,225,0.0,0.0,47,0.00,,,0.00,WUHU216TE923,2013-08-05 23:54:00,
2013-08-05 19:59:00,76.1,55.0,30.08,SW,225,0.0,0.0,48,0.00,,,0.00,WUHU216TE923,2013-08-05 23:59:00,
2013-08-05 20:04:00,75.9,54.9,30.08,SW,225,0.0,0.0,48,0.00,,,0.00,WUHU216TE923,2013-08-06 00:04:00,
2013-08-05 20:09:00,75.7,54.7,30.07,SW,225,0.0,0.0,48,0.00,,,0.00,WUHU216TE923,2013-08-06 00:09:00,
2013-08-05 20:14:00,75.6,55.2,30.07,SW,225,0.0,0.0,49,0.00,,,0.00,WUHU216TE923,2013-08-06 00:14:00,
2013-08-05 20:19:00,75.4,55.0,30.07,SW,225,0.0,0.0,49,0.00,,,0.00,WUHU216TE923,2013-08-06 00:19:00,
2013-08-05 20:25:00,75.2,54.8,30.07,SW,225,0.0,0.0,49,0.00,,,0.00,WUHU216TE923,2013-08-06 00:25:00,
2013-08-05 20:29:00,74.8,55.0,30.11,SW,225,0.0,0.0,50,0.00,,,0.00,WUHU216TE923,2013-08-06 00:29:00,
2013-08-05 20:35:00,74.7,54.9,30.11,SW,225,0.0,0.0,50,0.00,,,0.00,WUHU216TE923,2013-08-06 00:35:00,
2013-08-05 20:40:00,74.3,54.5,30.11,SW,225,0.0,0.0,50,0.00,,,0.00,WUHU216TE923,2013-08-06 00:40:00,
2013-08-05 20:46:00,74.1,54.9,30.11,SW,225,0.0,0.0,51,0.00,,,0.00,WUHU216TE923,2013-08-06 00:46:00,
2013-08-05 20:51:00,73.9,54.7,30.09,SW,225,0.0,0.0,51,0.00,,,0.00,WUHU216TE923,2013-08-06 00:51:00,
2013-08-05 20:57:00,73.9,55.3,30.09,SW,225,0.0,0.0,52,0.00,,,0.00,WUHU216TE923,2013-08-06 00:57:00,
2013-08-05 21:02:00,73.6,56.1,30.09,SW,225,0.0,0.0,54,0.00,,,0.00,WUHU216TE923,2013-08-06 01:02:00,
2013-08-05 21:07:00,73.6,56.1,30.09,SW,225,0.0,0.0,54,0.00,,,0.00,WUHU216TE923,2013-08-06 01:07:00,
2013-08-05 21:12:00,73.4,56.9,30.12,SW,225,0.0,0.0,56,0.00,,,0.00,WUHU216TE923,2013-08-06 01:12:00,
2013-08-05 21:18:00,73.2,57.2,30.12,SW,225,0.0,0.0,57,0.00,,,0.00,WUHU216TE923,2013-08-06 01:18:00,
2013-08-05 21:23:00,73.0,57.5,30.12,SW,225,0.0,0.0,58,0.00,,,0.00,WUHU216TE923,2013-08-06 01:23:00,
2013-08-05 21:28:00,72.9,57.4,30.11,SW,225,0.0,0.0,58,0.00,,,0.00,WUHU216TE923,2013-08-06 01:28:00,
2013-08-05 21:33:00,72.9,57.4,30.11,SW,225,0.0,0.0,58,0.00,,,0.00,WUHU216TE923,2013-08-06 01:33:00,
2013-08-05 21:38:00,72.5,57.1,30.11,SW,225,0.0,0.0,58,0.00,,,0.00,WUHU216TE923,2013-08-06 01:38:00,
2013-08-05 21:43:00,72.5,57.5,30.11,SW,225,0.0,0.0,59,0.00,,,0.00,WUHU216TE923,2013-08-06 01:43:00,
2013-08-05 21:49:00,72.3,57.4,30.06,SW,225,0.0,0.0,59,0.00,,,0.00,WUHU216TE923,2013-08-06 01:49:00,
2013-08-05 21:54:00,72.1,57.2,30.06,ESE,113,0.0,0.0,59,0.00,,,0.00,WUHU216TE923,2013-08-06 01:54:00,
2013-08-05 21:59:00,72.0,57.1,30.06,ESE,113,0.0,0.0,59,0.00,,,0.00,WUHU216TE923,2013-08-06 01:59:00,
2013-08-05 22:04:00,71.8,56.9,30.06,ESE,113,0.0,0.0,59,0.00,,,0.00,WUHU216TE923,2013-08-06 02:04:00,
2013-08-05 22:09:00,71.4,57.4,30.06,ESE,113,0.0,0.0,61,0.00,,,0.00,WUHU216TE923,2013-08-06 02:09:00,
2013-08-05 22:15:00,71.4,57.4,30.06,ESE,113,0.0,0.0,61,0.00,,,0.00,WUHU216TE923,2013-08-06 02:15:00,
2013-08-05 22:20:00,71.2,57.7,30.06,ESE,113,0.0,0.0,62,0.00,,,0.00,WUHU216TE923,2013-08-06 02:20:00,
2013-08-05 22:25:00,71.2,57.7,30.06,ESE,113,0.0,0.0,62,0.00,,,0.00,WUHU216TE923,2013-08-06 02:25:00,
2013-08-05 22:30:00,71.1,58.1,30.07,ESE,113,0.0,0.0,63,0.00,,,0.00,WUHU216TE923,2013-08-06 02:30:00,
2013-08-05 22:35:00,71.1,58.1,30.07,ESE,113,0.0,0.0,63,0.00,,,0.00,WUHU216TE923,2013-08-06 02:35:00,
2013-08-05 22:40:00,71.1,58.1,30.07,SE,135,0.0,0.0,63,0.00,,,0.00,WUHU216TE923,2013-08-06 02:40:00,
2013-08-05 22:45:00,70.9,58.3,30.07,SE,135,0.0,0.0,64,0.00,,,0.00,WUHU216TE923,2013-08-06 02:45:00,
2013-08-05 22:50:00,70.9,58.3,30.07,SE,135,0.0,0.0,64,0.00,,,0.00,WUHU216TE923,2013-08-06 02:50:00,
2013-08-05 22:55:00,70.9,58.7,30.07,SE,135,0.0,0.0,65,0.00,,,0.00,WUHU216TE923,2013-08-06 02:55:00,
2013-08-05 23:00:00,70.7,58.6,30.07,SE,135,0.0,0.0,65,0.00,,,0.00,WUHU216TE923,2013-08-06 03:00:00,
2013-08-05 23:05:00,70.7,58.6,30.07,SE,135,0.0,0.0,65,0.00,,,0.00,WUHU216TE923,2013-08-06 03:05:00,
2013-08-05 23:11:00,70.5,58.8,30.09,SE,135,0.0,0.0,66,0.00,,,0.00,WUHU216TE923,2013-08-06 03:11:00,
2013-08-05 23:16:00,70.5,58.8,30.09,SE,135,0.0,0.0,66,0.00,,,0.00,WUHU216TE923,2013-08-06 03:16:00,
2013-08-05 23:22:00,70.3,58.6,30.09,SE,135,0.0,0.0,66,0.00,,,0.00,WUHU216TE923,2013-08-06 03:22:00,
2013-08-05 23:27:00,70.2,58.5,30.09,SE,135,0.0,0.0,66,0.00,,,0.00,WUHU216TE923,2013-08-06 03:27:00,
2013-08-05 23:32:00,70.0,58.3,30.14,SE,135,0.0,0.0,66,0.00,,,0.00,WUHU216TE923,2013-08-06 03:32:00,
2013-08-05 23:37:00,70.0,58.3,30.14,SE,135,0.0,0.0,66,0.00,,,0.00,WUHU216TE923,2013-08-06 03:37:00,
2013-08-05 23:42:00,70.0,58.7,30.14,SE,135,0.0,0.0,67,0.00,,,0.00,WUHU216TE923,2013-08-06 03:42:00,
2013-08-05 23:47:00,70.0,58.7,30.14,SE,135,0.0,0.0,67,0.00,,,0.00,WUHU216TE923,2013-08-06 03:47:00,
2013-08-05 23:52:00,69.8,58.9,30.10,SE,135,0.0,0.0,68,0.00,,,0.00,WUHU216TE923,2013-08-06 03:52:00,
2013-08-05 23:57:00,69.8,58.9,30.10,SE,135,0.0,0.0,68,0.00,,,0.00,WUHU216TE923,2013-08-06 03:57:00,